| time (UTC) | temp F | wind direction | speed MPH | gust MPH | rain 1hr in | rain 24hr in | rain mn in | humidity % | barometer mb |
| 20260505114014 | 57 | 90 | 0.0 | 1.0 | 0.00 | 0.00 | 0.00 | ||
| 20260505113419 | 57 | 45 | 0.0 | 1.0 | 0.00 | 0.00 | 0.00 | ||
| 20260505112815 | 56 | 90 | 0.0 | 1.0 | 0.00 | 0.00 | 0.00 | ||
| 20260505112214 | 56 | 90 | 0.0 | 0.0 | 0.00 | 0.00 | 0.00 | ||
| 20260505111615 | 56 | 90 | 0.0 | 0.0 | 0.00 | 0.00 | 0.00 | ||
| 20260505110415 | 55 | 135 | 0.0 | 1.0 | 0.00 | 0.00 | 0.00 | ||
| 20260505102213 | 55 | 180 | 0.0 | 0.0 | 0.00 | 0.00 | 0.00 | ||
| 20260505101614 | 55 | 225 | 0.0 | 0.0 | 0.00 | 0.00 | 0.00 | ||
| 20260505100514 | 55 | 90 | 0.0 | 0.0 | 0.00 | 0.00 | 0.00 | ||
| 20260505095914 | 55 | 90 | 0.0 | 0.0 | 0.00 | 0.00 | 0.00 | ||
| 20260505095314 | 55 | 360 | 0.0 | 1.0 | 0.00 | 0.00 | 0.00 | ||
| 20260505094713 | 55 | 90 | 0.0 | 1.0 | 0.00 | 0.00 | 0.00 | ||
| 20260505094113 | 55 | 315 | 0.0 | 2.0 | 0.00 | 0.00 | 0.00 | ||
| 20260505093514 | 55 | 315 | 1.0 | 2.0 | 0.00 | 0.00 | 0.00 | ||
| 20260505092913 | 55 | 45 | 1.0 | 2.0 | 0.00 | 0.00 | 0.00 | ||
| 20260505092313 | 55 | 45 | 0.0 | 0.0 | 0.00 | 0.00 | 0.00 | ||
| 20260505091714 | 55 | 90 | 0.0 | 0.0 | 0.00 | 0.00 | 0.00 | ||
| 20260505090713 | 55 | 90 | 0.0 | 2.0 | 0.00 | 0.00 | 0.00 | ||
| 20260505090113 | 55 | 360 | 0.0 | 2.0 | 0.00 | 0.00 | 0.00 | ||
| 20260505084814 | 55 | 45 | 1.0 | 2.0 | 0.00 | 0.00 | 0.00 | ||
| 20260505084214 | 55 | 270 | 0.0 | 0.0 | 0.00 | 0.00 | 0.00 | ||
| 20260505082913 | 55 | 270 | 0.0 | 0.0 | 0.00 | 0.00 | 0.00 | ||
| 20260505082314 | 55 | 270 | 0.0 | 1.0 | 0.00 | 0.00 | 0.00 | ||
| 20260505081714 | 55 | 270 | 0.0 | 2.0 | 0.00 | 0.00 | 0.00 | ||
| 20260505080517 | 55 | 360 | 1.0 | 3.0 | 0.00 | 0.00 | 0.00 | ||
| 20260505075916 | 55 | 315 | 1.0 | 2.0 | 0.00 | 0.00 | 0.00 | ||
| 20260505075316 | 55 | 360 | 1.0 | 1.0 | 0.00 | 0.00 | 0.00 | ||
| 20260505074715 | 54 | 315 | 0.0 | 2.0 | 0.00 | 0.00 | 0.00 | ||
| 20260505074115 | 54 | 315 | 0.0 | 2.0 | 0.00 | 0.00 | 0.00 | ||
| 20260505073516 | 54 | 315 | 0.0 | 1.0 | 0.00 | 0.00 | 0.00 | ||
| 20260505072915 | 55 | 90 | 0.0 | 2.0 | 0.00 | 0.00 | 0.00 | ||
| 20260505072314 | 55 | 360 | 1.0 | 2.0 | 0.00 | 0.00 | 0.00 | ||
| 20260505071713 | 55 | 0 | 0.0 | 1.0 | 0.00 | 0.00 | 0.00 | ||
| 20260505070516 | 55 | 45 | 0.0 | 1.0 | 0.00 | 0.00 | 0.00 | ||
| 20260505065916 | 55 | 45 | 0.0 | 1.0 | 0.00 | 0.00 | 0.00 | ||
| 20260505065316 | 55 | 135 | 0.0 | 1.0 | 0.00 | 0.00 | 0.00 | ||
| 20260505064715 | 56 | 90 | 0.0 | 1.0 | 0.00 | 0.00 | 0.00 | ||
| 20260505064115 | 56 | 90 | 0.0 | 2.0 | 0.00 | 0.00 | 0.00 | ||
| 20260505063515 | 56 | 45 | 1.0 | 2.0 | 0.00 | 0.00 | 0.00 | ||
| 20260505062914 | 56 | 360 | 0.0 | 1.0 | 0.00 | 0.00 | 0.00 | ||
| 20260505062315 | 57 | 45 | 0.0 | 2.0 | 0.00 | 0.00 | 0.00 | ||
| 20260505061715 | 57 | 225 | 0.0 | 2.0 | 0.00 | 0.00 | 0.00 | ||
| 20260505060416 | 57 | 180 | 0.0 | 3.0 | 0.00 | 0.00 | 0.00 | ||
| 20260505055815 | 58 | 360 | 0.0 | 3.0 | 0.00 | 0.00 | 0.00 | ||
| 20260505055216 | 58 | 45 | 1.0 | 3.0 | 0.00 | 0.00 | 0.00 | ||
| 20260505054616 | 58 | 315 | 2.0 | 5.0 | 0.00 | 0.00 | 0.00 | ||
| 20260505054015 | 58 | 315 | 1.0 | 3.0 | 0.00 | 0.00 | 0.00 | ||
| 20260505053416 | 58 | 315 | 1.0 | 3.0 | 0.00 | 0.00 | 0.00 | ||
| 20260505052816 | 58 | 315 | 1.0 | 3.0 | 0.00 | 0.00 | 0.00 | ||
| 20260505052215 | 58 | 225 | 1.0 | 2.0 | 0.00 | 0.00 | 0.00 | ||
| 20260505051615 | 58 | 360 | 1.0 | 5.0 | 0.00 | 0.00 | 0.00 | ||
| 20260505050415 | 58 | 360 | 2.0 | 3.0 | 0.00 | 0.00 | 0.00 | ||
| 20260505041614 | 58 | 315 | 0.0 | 4.0 | 0.00 | 0.00 | 0.00 | ||
| 20260505040519 | 57 | 315 | 1.0 | 2.0 | 0.00 | 0.00 | 0.00 | ||
| 20260505035918 | 57 | 360 | 1.0 | 2.0 | 0.00 | 0.00 | 0.00 | ||
| 20260505035319 | 57 | 90 | 0.0 | 0.0 | 0.00 | 0.00 | 0.00 | ||
| 20260505034718 | 57 | 270 | 0.0 | 0.0 | 0.00 | 0.00 | 0.00 | ||
| 20260505034118 | 57 | 270 | 0.0 | 0.0 | 0.00 | 0.00 | 0.00 | ||
| 20260505033515 | 57 | 270 | 0.0 | 1.0 | 0.00 | 0.00 | 0.00 | ||
| 20260505032914 | 58 | 180 | 0.0 | 2.0 | 0.00 | 0.00 | 0.00 | ||
| 20260505032315 | 58 | 315 | 0.0 | 2.0 | 0.00 | 0.00 | 0.00 | ||
| 20260505031714 | 57 | 360 | 2.0 | 2.0 | 0.00 | 0.00 | 0.00 | ||
| 20260505030615 | 58 | 315 | 1.0 | 2.0 | 0.00 | 0.00 | 0.00 | ||
| 20260505030014 | 58 | 315 | 0.0 | 1.0 | 0.00 | 0.00 | 0.00 | ||
| 20260505025414 | 58 | 270 | 0.0 | 2.0 | 0.00 | 0.00 | 0.00 | ||
| 20260505024814 | 58 | 360 | 0.0 | 2.0 | 0.00 | 0.00 | 0.00 | ||
| 20260505024214 | 58 | 315 | 0.0 | 2.0 | 0.00 | 0.00 | 0.00 | ||
| 20260505023613 | 58 | 315 | 0.0 | 3.0 | 0.00 | 0.00 | 0.00 | ||
| 20260505023013 | 58 | 315 | 2.0 | 3.0 | 0.00 | 0.00 | 0.00 | ||
| 20260505021714 | 58 | 315 | 2.0 | 3.0 | 0.00 | 0.00 | 0.00 | ||
| 20260505020714 | 58 | 315 | 0.0 | 1.0 | 0.00 | 0.00 | 0.00 | ||
| 20260505015413 | 58 | 225 | 0.0 | 0.0 | 0.00 | 0.00 | 0.00 | ||
| 20260505014814 | 58 | 315 | 0.0 | 0.0 | 0.00 | 0.00 | 0.00 | ||
| 20260505014213 | 58 | 315 | 0.0 | 0.0 | 0.00 | 0.00 | 0.00 | ||
| 20260505012914 | 59 | 90 | 0.0 | 0.0 | 0.00 | 0.00 | 0.00 | ||
| 20260505011715 | 59 | 180 | 0.0 | 0.0 | 0.00 | 0.00 | 0.00 | ||
| 20260505010514 | 59 | 225 | 0.0 | 1.0 | 0.00 | 0.00 | 0.00 | ||
| 20260505005914 | 59 | 180 | 0.0 | 1.0 | 0.00 | 0.00 | 0.00 | ||
| 20260505005313 | 59 | 315 | 1.0 | 2.0 | 0.00 | 0.00 | 0.00 | ||
| 20260505004714 | 59 | 45 | 0.0 | 2.0 | 0.00 | 0.00 | 0.00 | ||
| 20260505004114 | 60 | 45 | 0.0 | 0.0 | 0.00 | 0.00 | 0.00 | ||
| 20260505003514 | 60 | 225 | 0.0 | 0.0 | 0.00 | 0.00 | 0.00 | ||
| 20260505002913 | 60 | 225 | 0.0 | 0.0 | 0.00 | 0.00 | 0.00 | ||
| 20260505002313 | 60 | 225 | 0.0 | 0.0 | 0.00 | 0.00 | 0.00 | ||
| 20260505001714 | 60 | 225 | 0.0 | 0.0 | 0.00 | 0.00 | 0.00 | ||
| 20260505000420 | 60 | 180 | 0.0 | 0.0 | 0.00 | 0.00 | 0.00 | ||
| 20260504235819 | 60 | 180 | 0.0 | 0.0 | 0.00 | 0.00 | 0.00 | ||
| 20260504235219 | 60 | 180 | 0.0 | 1.0 | 0.00 | 0.00 | 0.00 | ||
| 20260504234615 | 60 | 180 | 0.0 | 1.0 | 0.00 | 0.00 | 0.00 | ||
| 20260504234015 | 60 | 315 | 0.0 | 1.0 | 0.00 | 0.00 | 0.00 | ||
| 20260504233416 | 60 | 135 | 1.0 | 1.0 | 0.00 | 0.00 | 0.00 | ||
| 20260504232816 | 60 | 90 | 0.0 | 0.0 | 0.00 | 0.00 | 0.00 | ||
| 20260504232216 | 60 | 90 | 0.0 | 1.0 | 0.00 | 0.00 | 0.00 | ||
| 20260504231615 | 60 | 90 | 0.0 | 0.0 | 0.00 | 0.00 | 0.00 | ||
| 20260504230515 | 60 | 225 | 0.0 | 1.0 | 0.00 | 0.00 | 0.00 | ||
| 20260504225916 | 61 | 180 | 0.0 | 1.0 | 0.00 | 0.00 | 0.00 | ||
| 20260504225315 | 61 | 225 | 0.0 | 2.0 | 0.00 | 0.00 | 0.00 | ||
| 20260504224716 | 61 | 225 | 1.0 | 2.0 | 0.00 | 0.00 | 0.00 | ||
| 20260504224116 | 61 | 225 | 0.0 | 2.0 | 0.00 | 0.00 | 0.00 | ||
| 20260504223515 | 61 | 270 | 1.0 | 2.0 | 0.00 | 0.00 | 0.00 | ||
| 20260504222916 | 61 | 225 | 0.0 | 2.0 | 0.00 | 0.00 | 0.00 | ||
| 20260504222315 | 62 | 225 | 1.0 | 3.0 | 0.00 | 0.00 | 0.00 | ||
| 20260504221715 | 62 | 315 | 1.0 | 3.0 | 0.00 | 0.00 | 0.00 | ||
| 20260504220516 | 62 | 315 | 1.0 | 3.0 | 0.00 | 0.00 | 0.00 | ||
| 20260504215915 | 63 | 360 | 2.0 | 3.0 | 0.00 | 0.00 | 0.00 | ||
| 20260504215315 | 63 | 360 | 1.0 | 2.0 | 0.00 | 0.00 | 0.00 | ||
| 20260504214715 | 64 | 315 | 0.0 | 3.0 | 0.00 | 0.00 | 0.00 | ||
| 20260504214115 | 64 | 315 | 1.0 | 2.0 | 0.00 | 0.00 | 0.00 | ||
| 20260504213517 | 64 | 270 | 0.0 | 2.0 | 0.00 | 0.00 | 0.00 | ||
| 20260504212915 | 65 | 315 | 0.0 | 2.0 | 0.00 | 0.00 | 0.00 | ||
| 20260504212315 | 66 | 315 | 0.0 | 3.0 | 0.00 | 0.00 | 0.00 | ||
| 20260504211714 | 66 | 315 | 0.0 | 3.0 | 0.00 | 0.00 | 0.00 | ||
| 20260504210519 | 68 | 360 | 2.0 | 5.0 | 0.00 | 0.00 | 0.00 | ||
| 20260504205919 | 69 | 315 | 1.0 | 5.0 | 0.00 | 0.00 | 0.00 | ||
| 20260504205314 | 70 | 315 | 1.0 | 5.0 | 0.00 | 0.00 | 0.00 | ||
| 20260504204713 | 71 | 315 | 2.0 | 3.0 | 0.00 | 0.00 | 0.00 | ||
| 20260504204114 | 72 | 270 | 0.0 | 3.0 | 0.00 | 0.00 | 0.00 | ||
| 20260504203513 | 73 | 45 | 0.0 | 4.0 | 0.00 | 0.00 | 0.00 | ||
| 20260504202913 | 73 | 360 | 2.0 | 4.0 | 0.00 | 0.00 | 0.00 | ||
| 20260504202314 | 73 | 315 | 0.0 | 3.0 | 0.00 | 0.00 | 0.00 | ||
| 20260504201713 | 73 | 225 | 0.0 | 3.0 | 0.00 | 0.00 | 0.00 | ||
| 20260504200514 | 73 | 225 | 2.0 | 6.0 | 0.00 | 0.00 | 0.00 | ||
| 20260504195913 | 73 | 225 | 1.0 | 7.0 | 0.00 | 0.00 | 0.00 | ||
| 20260504195313 | 73 | 270 | 2.0 | 7.0 | 0.00 | 0.00 | 0.00 | ||
| 20260504194714 | 74 | 225 | 2.0 | 6.0 | 0.00 | 0.00 | 0.00 | ||
| 20260504194118 | 74 | 270 | 2.0 | 6.0 | 0.00 | 0.00 | 0.00 | ||
| 20260504193513 | 74 | 270 | 1.0 | 6.0 | 0.00 | 0.00 | 0.00 | ||
| 20260504192213 | 74 | 270 | 3.0 | 9.0 | 0.00 | 0.00 | 0.00 | ||
| 20260504191613 | 74 | 315 | 2.0 | 9.0 | 0.00 | 0.00 | 0.00 | ||
| 20260504190416 | 75 | 270 | 5.0 | 9.0 | 0.00 | 0.00 | 0.00 | ||
| 20260504185815 | 75 | 270 | 2.0 | 10.0 | 0.00 | 0.00 | 0.00 | ||
| 20260504185215 | 75 | 270 | 3.0 | 8.0 | 0.00 | 0.00 | 0.00 | ||
| 20260504184615 | 75 | 180 | 3.0 | 6.0 | 0.00 | 0.00 | 0.00 | ||
| 20260504184015 | 76 | 270 | 2.0 | 7.0 | 0.00 | 0.00 | 0.00 | ||
| 20260504183416 | 76 | 315 | 2.0 | 7.0 | 0.00 | 0.00 | 0.00 | ||
| 20260504182815 | 76 | 315 | 2.0 | 9.0 | 0.00 | 0.00 | 0.00 | ||
| 20260504182214 | 76 | 315 | 2.0 | 9.0 | 0.00 | 0.00 | 0.00 | ||
| 20260504181614 | 75 | 45 | 2.0 | 8.0 | 0.00 | 0.00 | 0.00 | ||
| 20260504180417 | 74 | 360 | 2.0 | 9.0 | 0.00 | 0.00 | 0.00 | ||
| 20260504175815 | 74 | 360 | 4.0 | 9.0 | 0.00 | 0.00 | 0.00 | ||
| 20260504175215 | 74 | 360 | 6.0 | 8.0 | 0.00 | 0.00 | 0.00 | ||
| 20260504174615 | 74 | 360 | 2.0 | 9.0 | 0.00 | 0.00 | 0.00 | ||
| 20260504174014 | 73 | 315 | 5.0 | 9.0 | 0.00 | 0.00 | 0.00 | ||
| 20260504173414 | 73 | 360 | 1.0 | 9.0 | 0.00 | 0.00 | 0.00 | ||
| 20260504172815 | 73 | 315 | 3.0 | 9.0 | 0.00 | 0.00 | 0.00 | ||
| 20260504172215 | 72 | 315 | 5.0 | 8.0 | 0.00 | 0.00 | 0.00 | ||
| 20260504171614 | 72 | 315 | 2.0 | 8.0 | 0.00 | 0.00 | 0.00 | ||
| 20260504170514 | 73 | 360 | 5.0 | 9.0 | 0.00 | 0.00 | 0.00 | ||
| 20260504160417 | 70 | 0 | 10.0 | 11.0 | 0.00 | 0.00 | 0.00 | ||
| 20260504150613 | 67 | 315 | 5.0 | 9.0 | 0.00 | 0.00 | 0.00 | ||
| 20260504140514 | 63 | 270 | 2.0 | 10.0 | 0.00 | 0.00 | 0.00 | ||
| 20260504130614 | 60 | 360 | 3.0 | 9.0 | 0.00 | 0.00 | 0.00 |